Regional Weather Roundup
Issued by NWS

Home | Current Version | Previous Version | Text Only | Print | Product List | Glossary On
Versions: 1 2 3 4 5 6 7 8 9 10 11 12 13 14 15 16 17 18 19 20 21 22 23 24 25 26 27
000
ASUS45 KCYS 230810
RWRWY

WYOMING REGIONAL WEATHER ROUNDUP
NATIONAL WEATHER SERVICE CHEYENNE WY
200 AM MDT WED AUG 23 2017

NOTE:  "FAIR" INDICATES FEW OR NO CLOUDS BELOW 12,000 FEET
WITH NO SIGNIFICANT WEATHER AND/OR OBSTRUCTIONS TO VISIBILITY.

WYZ001-230900-
YELLOWSTONE NATIONAL PARK

CITY           SKY/WX    TMP DP  RH WIND       PRES   REMARKS
LK YELLOWSTONE   N/A     40  32  73 CALM      30.40S
W YELLOWSTONE  NOT AVBL

$$
WYZ002>013-054>058-071-098>099-230900-
NORTHERN WYOMING

CITY           SKY/WX    TMP DP  RH WIND       PRES   REMARKS
JACKSON        FAIR      47  32  56 NE5       30.31R
CODY           FAIR      65  38  36 SW7       30.17F
GREYBULL       FAIR      63  38  39 W5        30.08R
WORLAND        FAIR      60  35  39 S3        30.09S
SHERIDAN       FAIR      53  43  68 CALM      30.08F
BUFFALO        FAIR      65  33  30 W9        30.16F
GILLETTE       FAIR      61  43  51 S7        30.10F
HULETT         FAIR      61  43  51 S3        30.13S
NEWCASTLE      FAIR      64  45  48 E6        30.14R

$$
WYZ014>020-022>026-101>103-230900-
CENTRAL WYOMING

CITY           SKY/WX    TMP DP  RH WIND       PRES   REMARKS
BIG PINEY      FAIR      50  31  48 N8        30.33S
PINEDALE       FAIR      43  32  65 NW6       30.34S
DUBOIS         FAIR      52  27  37 NW13      30.33S
LANDER           N/A    N/A N/A N/A MISG      30.19S
RIVERTON       FAIR      65  31  28 NE9       30.19F
CASPER         FAIR      53  38  56 W5        30.19S
DOUGLAS        FAIR      59  50  72 CALM      30.18R

$$
WYZ021-027>030-104>119-230900-
SOUTHERN WYOMING

CITY           SKY/WX    TMP DP  RH WIND       PRES   REMARKS
EVANSTON       CLOUDY    60  43  53 SW8       30.35S
KEMMERER         N/A     57  36  44 NW6       30.36R
FORT BRIDGER   FAIR      65  39  39 SW14      30.37S
ROCK SPRINGS   FAIR      62  36  37 W8        30.30S
DIXON          FAIR      51  38  61 SE6       30.36R
RAWLINS        NOT AVBL
SARATOGA       FAIR      54  36  50 SE5       30.35R
LARAMIE        FAIR      50  43  77 S8        30.33S
CHEYENNE       FAIR      56  51  84 W8        30.24S
TORRINGTON     FAIR      59  53  80 E9        30.14R
PINE BLUFFS    FAIR      52  50  93 CALM      30.20S

$$




USA.gov is the U.S. government's official web portal to all federal, state and local government web resources and services.